Location: Observatory
(52.1446°N, 0.4624°W)
Time: 05:40:05
(UTC+00:00)

ISS - Pass Details

Date: 03 December 2019
Orbit: 411 x 421 km, 51.6° (Epoch: 15 December)

Event Time Altitude Azimuth Distance (km) Brightness Sun altitude
Rises 16:33:39 0° 259° (W) 2,352 1.8 -6.2°
Reaches altitude 10° 16:35:44 10° 258° (WSW) 1,492 0.5 -6.5°
Maximum altitude 16:39:05 79° 173° (S) 431 -3.7 -6.9°
Drops below altitude 10° 16:42:27 10° 86° (E) 1,501 -1.5 -7.4°
Enters shadow 16:42:48 - 86° (E) 1,640 -1.3 -7.4°
